MDT,Max TemperatureF,Mean TemperatureF,Min TemperatureF,Max Dew PointF,MeanDew PointF,Min DewpointF,Max Humidity, Mean Humidity, Min Humidity, Max Sea Level PressureIn, Mean Sea Level PressureIn, Min Sea Level PressureIn, Max VisibilityMiles, Mean VisibilityMiles, Min VisibilityMiles, Max Wind SpeedMPH, Mean Wind SpeedMPH, Max Gust SpeedMPH,PrecipitationIn, CloudCover, Events, WindDirDegrees
2012-10-1,59,45,30,28,23,19,72,48,23,30.19,30.09,30.01,10,10,10,21,8,29,0.00,1,,33
2012-10-2,63,46,28,24,20,16,69,43,17,30.08,29.95,29.83,10,10,10,18,7,28,0.00,0,,359
2012-10-3,61,47,32,20,17,12,52,34,16,29.89,29.83,29.76,10,10,10,29,10,43,0.00,1,,328
2012-10-4,58,44,30,34,22,13,72,46,19,30.27,29.93,29.81,10,10,9,38,8,59,0.02,7,Rain,181
2012-10-5,51,40,29,34,21,7,92,54,16,30.22,29.92,29.78,10,10,8,25,11,36,0.03,4,Rain-Snow,295
2012-10-6,43,33,22,22,6,-14,96,53,9,30.18,29.96,29.80,10,9,1,21,10,31,0.00,2,,297
2012-10-7,45,30,15,21,3,-8,96,54,11,30.15,30.02,29.93,10,10,10,21,8,28,0.00,2,,337
2012-10-8,53,36,19,4,-5,-14,38,22,6,30.03,29.92,29.83,10,10,10,24,10,33,0.00,0,,343
2012-10-9,53,44,34,15,12,8,38,28,17,29.96,29.85,29.79,10,10,6,29,11,40,0.00,1,,332
2012-10-10,57,42,26,23,19,13,56,40,24,30.02,29.95,29.90,10,10,10,21,8,26,0.00,0,,347
2012-10-11,61,47,33,31,21,13,62,39,16,30.34,29.94,29.83,10,10,8,28,8,36,T,2,Rain,120
2012-10-12,47,38,28,40,33,23,100,79,58,30.27,30.02,29.80,10,8,1,25,6,31,0.36,6,Rain-Snow,157
2012-10-13,40,33,25,32,28,21,92,81,70,30.34,30.07,29.84,10,6,1,20,8,25,0.04,7,Rain-Snow,348
2012-10-14,46,38,30,31,28,25,89,69,49,30.48,30.25,30.13,10,10,2,20,9,24,T,5,Snow,342
2012-10-15,55,40,25,24,19,12,85,53,21,30.17,30.03,29.85,10,10,10,21,8,28,0.00,0,,357
2012-10-16,55,42,29,34,24,18,92,58,24,29.97,29.75,29.48,10,9,2,37,11,49,0.14,3,Rain,322
2012-10-17,39,32,25,32,11,-4,70,44,18,29.99,29.80,29.55,10,9,2,35,19,49,T,2,Snow,314
2012-10-18,46,37,28,13,9,4,50,37,23,30.16,30.05,29.96,10,10,10,28,13,35,0.00,0,,334
2012-10-19,55,39,22,17,13,4,74,44,13,30.17,30.00,29.86,10,10,10,22,8,33,0.00,0,,13
2012-10-20,61,45,28,15,10,4,58,34,10,29.87,29.74,29.61,10,10,10,18,8,28,0.00,0,,352
2012-10-21,56,40,24,19,15,10,59,39,18,29.87,29.75,29.65,10,10,10,20,5,25,0.00,0,,117
2012-10-22,55,39,23,23,16,4,75,45,15,29.87,29.73,29.62,10,10,10,22,9,31,0.00,0,,140
2012-10-23,52,44,35,32,15,2,76,45,13,30.05,29.66,29.53,10,10,8,28,11,46,0.01,2,Rain,203
2012-10-24,46,33,19,28,22,13,100,64,28,29.99,29.77,29.52,10,6,0,29,11,46,0.03,6,Fog-Snow,350
2012-10-25,25,19,13,18,14,6,100,73,46,30.15,30.04,29.76,10,6,0,18,7,25,0.12,7,Fog-Snow,336
2012-10-26,27,14,1,10,4,-2,88,59,29,30.38,30.25,30.11,10,9,2,15,6,20,T,3,Snow,10
2012-10-27,33,26,19,13,9,2,62,50,38,30.22,30.10,30.03,10,10,10,22,9,31,T,5,,349
2012-10-28,43,36,28,23,19,10,75,59,43,30.11,30.05,29.96,10,10,10,25,11,35,0.00,3,,332
2012-10-29,49,37,25,24,21,19,81,56,31,30.18,30.12,30.06,10,10,10,21,8,28,0.00,1,,354
2012-10-30,51,37,22,22,19,14,88,55,22,30.19,30.13,30.04,10,10,10,16,7,21,0.00,0,,40
2012-10-31,54,38,22,20,17,10,84,51,18,30.22,30.12,30.02,10,10,10,15,5,21,0.00,0,,10